Vorticity
4 4 4 5 6 4 4 6 8 9 39 2 22 5 4 14 10 7 8 5 6 8 11 13 12 9 8 6 7 4 10 9 7 5 4 6 5 4 9 11 7 6 20 11 4 5 3
7 8 8 7 7 6 9 10 8 7 6 22 2 20 -1 11 12 7 6 6 6 5 7 10 11 11 10 7 7 7 9 10 10 7 7 6 5 5 8 8 6 11 8 24 13 2 6
7 8 7 7 5 7 7 7 10 15 6 14 1 -1 29 -5 16 9 5 6 7 5 6 6 8 11 10 9 10 5 5 7 6 8 7 3 4 3 3 7 5 10 12 7 21 11 7
7 6 7 6 4 7 6 5 14 11 16 9 32 -1 -0 23 -3 15 7 5 6 7 5 4 5 6 9 9 9 9 10 8 8 8 7 8 7 8 5 1 2 5 10 18 11 14 10
7 5 5 4 4 6 8 5 5 9 16 19 8 26 -1 2 16 -1 12 8 5 5 4 4 4 5 7 5 6 8 6 7 8 8 7 7 8 6 6 5 6 6 8 15 14 10 12
4 6 5 5 5 7 8 11 11 17 14 18 20 3 11 0 7 11 -1 11 7 4 5 4 3 5 7 5 5 4 5 4 6 8 9 8 6 5 7 7 7 3 4 5 9 18 8
4 6 8 3 3 9 13 17 19 18 20 19 17 16 5 4 3 12 8 -1 11 9 4 4 3 4 3 2 3 4 4 6 4 3 5 5 7 9 6 5 6 4 3 4 10 17 16
7 6 5 8 9 22 26 25 22 29 22 25 18 18 10 9 3 3 16 6 2 7 9 5 5 4 2 3 3 2 3 3 3 2 3 4 3 5 5 3 2 1 3 7 10 12 6
6 6 5 5 20 34 35 33 29 26 39 25 24 16 12 10 28 5 3 15 4 3 4 8 8 5 3 2 2 4 1 0 1 2 1 0 7 0 3 5 6 6 5 7 9 8 9
8 2 5 10 37 33 21 23 25 25 24 43 33 19 16 -12 3 23 4 3 12 8 4 4 6 5 7 5 1 2 3 2 2 2 6 4 5 7 3 5 8 6 8 6 7 7 12
4 1 7 26 31 19 30 37 36 33 35 28 32 24 3 8 10 23 14 11 6 11 10 5 6 5 6 5 8 7 6 9 9 7 6 11 6 3 5 11 7 11 10 9 10 11 10
4 2 11 38 20 29 46 47 13 22 44 33 26 31 25 -8 15 0 18 14 8 5 12 17 4 5 9 7 5 4 5 7 9 7 8 7 6 7 9 10 11 9 11 11 10 10 2
4 7 23 32 15 50 47 -4 5 3 35 41 26 20 35 20 16 17 -0 15 6 3 3 7 14 16 11 8 7 6 6 8 9 8 2 4 7 10 9 14 16 16 18 15 14 10 10
2 10 33 26 16 41 27 -6 8 2 20 56 30 40 21 -5 -5 22 -5 20 17 2 6 3 7 7 7 6 8 9 11 8 2 7 10 11 22 26 28 23 20 10 11 1 23 24 14
2 11 35 22 35 28 4 9 14 -2 16 61 42 -9 59 -9 3 23 2 17 18 9 3 6 3 5 5 4 3 8 7 5 11 22 28 40 43 31 20 15 14 31 30 40 21 19 22
3 11 36 23 26 25 5 18 29 -6 16 62 32 -5 25 2 19 5 6 16 28 9 8 3 5 5 5 9 10 10 2 19 15 11 12 -5 13 2 2 7 17 29 9 9 15 13 9
6 15 35 24 26 40 15 20 26 10 11 75 0 15 -5 14 24 5 9 26 25 10 6 6 3 2 6 8 7 5 19 7 1 4 4 10 -15 5 7 12 3 3 11 19 23 6 -1
9 20 34 26 31 32 30 17 17 8 46 42 20 1 8 19 -8 0 18 7 25 13 6 5 4 3 4 6 2 12 18 2 1 -5 3 7 -5 17 11 18 19 17 28 7 6 8 14
11 26 31 25 39 26 33 11 31 -16 31 82 -10 15 -6 7 -7 3 13 7 19 9 11 8 5 6 3 6 10 17 12 -1 -1 7 7 10 8 14 19 23 18 12 37 55 26 15 11
11 28 30 26 43 24 34 9 -0 13 82 16 -15 17 18 7 2 2 26 26 15 9 12 6 8 3 10 12 11 13 9 3 -7 4 16 20 12 20 21 37 33 26 20 10 28 34 38
11 32 31 29 40 26 25 14 1 42 47 3 10 44 -1 -4 0 -4 6 12 13 13 10 8 4 12 11 9 15 15 12 8 9 10 19 14 8 28 2 8 16 32 55 51 35 12 19
14 35 37 30 51 29 18 24 20 4 -14 -13 34 23 12 4 2 -3 19 9 9 9 11 6 9 4 10 6 14 12 14 7 4 9 20 20 11 30 7 1 10 26 9 10 20 20 -6
15 35 48 27 40 9 8 19 27 13 13 6 -3 3 32 19 23 20 -6 11 7 5 7 15 5 13 1 13 11 10 8 5 7 10 18 12 5 5 11 4 7 30 10 25 23 -19 24
13 35 61 18 26 10 19 12 31 -3 -6 -9 -4 22 -0 7 29 16 3 1 15 12 8 10 8 9 1 10 12 12 7 -2 -4 18 9 8 10 7 0 18 26 35 41 22 11 23 29
15 39 64 13 12 12 27 42 23 -3 -11 -3 -4 -3 22 -19 6 19 -1 1 12 13 8 6 8 9 11 13 13 8 13 -2 13 5 -1 5 6 5 6 11 11 12 5 21 23 42 5
9 30 58 39 1 10 50 17 8 -3 2 1 8 -7 20 29 15 7 3 9 11 2 9 5 7 23 19 9 10 13 13 1 9 3 5 6 5 4 6 9 4 2 -1 11 19 15 17
6 20 59 63 6 35 9 -4 -11 -10 -10 4 17 1 2 33 0 11 -7 18 8 -10 -3 9 14 15 3 -8 11 18 11 6 12 0 1 9 7 8 10 6 7 9 1 2 12 3 2
8 18 49 67 5 25 -1 -11 8 -4 5 1 -5 11 -5 14 4 -4 -1 16 4 8 -3 10 12 14 8 3 7 26 10 11 15 1 -2 1 8 3 5 6 3 10 11 2 5 4 5
7 18 43 58 51 15 7 8 16 12 14 1 9 20 8 5 13 9 20 10 5 9 -7 16 6 20 -15 19 17 24 8 12 11 4 -1 6 -2 3 4 5 3 5 8 8 9 8 8
Height
5684 5681 5677 5674 5671 5668 5666 5664 5663 5661 5659 5660 5660 5662 5664 5666 5669 5672 5674 5677 5681 5683 5685 5688 5692 5696 5700 5704 5706 5711 5713 5715 5717 5720 5723 5725 5727 5728 5730 5732 5733 5732 5738 5740 5745 5747 5749
5678 5674 5671 5666 5663 5660 5657 5655 5654 5652 5651 5649 5650 5651 5654 5657 5660 5663 5666 5671 5674 5676 5678 5682 5685 5689 5693 5696 5701 5703 5706 5708 5710 5713 5716 5719 5721 5722 5724 5725 5726 5727 5729 5731 5735 5741 5743
5672 5667 5663 5659 5655 5651 5647 5645 5642 5641 5639 5639 5640 5642 5644 5648 5651 5654 5659 5663 5666 5670 5671 5675 5679 5682 5685 5689 5692 5694 5698 5701 5703 5706 5709 5712 5715 5716 5718 5718 5720 5720 5721 5723 5727 5732 5734
5663 5658 5652 5648 5645 5641 5636 5632 5630 5628 5627 5627 5628 5631 5633 5636 5642 5645 5650 5654 5658 5662 5665 5668 5672 5675 5679 5682 5684 5688 5691 5694 5697 5699 5702 5705 5707 5708 5710 5711 5711 5713 5713 5716 5719 5721 5724
5655 5648 5640 5634 5629 5623 5620 5616 5614 5613 5612 5613 5616 5618 5622 5625 5630 5635 5639 5644 5650 5654 5658 5661 5666 5669 5672 5676 5679 5682 5685 5688 5691 5693 5695 5697 5700 5701 5703 5703 5703 5705 5706 5706 5709 5711 5712
5643 5636 5628 5620 5611 5603 5597 5593 5591 5591 5593 5595 5599 5604 5608 5613 5616 5622 5628 5634 5640 5645 5650 5655 5658 5662 5667 5670 5673 5676 5679 5682 5684 5687 5689 5691 5691 5694 5695 5695 5695 5695 5695 5697 5697 5702 5701
5632 5623 5615 5605 5592 5578 5567 5563 5563 5564 5567 5572 5578 5586 5593 5599 5604 5609 5617 5624 5632 5638 5642 5648 5651 5655 5659 5663 5667 5670 5672 5674 5677 5679 5681 5683 5685 5687 5686 5685 5685 5685 5686 5687 5688 5689 5691
5621 5610 5598 5585 5572 5561 5549 5537 5529 5533 5538 5545 5554 5565 5576 5584 5590 5596 5604 5613 5622 5628 5633 5638 5643 5649 5652 5655 5659 5662 5666 5668 5669 5671 5672 5675 5678 5677 5677 5676 5676 5676 5677 5677 5678 5678 5677
5611 5598 5585 5568 5550 5531 5519 5512 5506 5504 5510 5517 5530 5543 5557 5571 5578 5583 5594 5601 5608 5617 5623 5630 5636 5641 5645 5649 5652 5656 5658 5659 5662 5663 5664 5666 5669 5668 5666 5666 5664 5665 5665 5665 5665 5663 5664
5598 5584 5565 5545 5525 5508 5497 5488 5485 5485 5488 5498 5509 5523 5541 5557 5566 5570 5581 5590 5598 5607 5612 5622 5627 5633 5638 5642 5646 5647 5649 5652 5654 5655 5655 5657 5661 5657 5655 5654 5651 5652 5651 5649 5650 5649 5652
5584 5567 5545 5523 5504 5491 5479 5471 5468 5468 5471 5479 5490 5506 5527 5538 5551 5559 5574 5581 5590 5598 5602 5613 5619 5626 5631 5635 5639 5641 5642 5643 5645 5645 5646 5649 5647 5645 5643 5642 5636 5637 5635 5633 5634 5634 5635
5572 5550 5525 5506 5490 5478 5466 5462 5463 5462 5460 5465 5476 5490 5510 5527 5541 5554 5562 5571 5581 5589 5593 5604 5611 5618 5624 5627 5631 5633 5636 5637 5637 5636 5636 5638 5634 5632 5631 5627 5623 5620 5620 5618 5617 5617 5617
5557 5534 5511 5494 5480 5468 5462 5459 5460 5457 5457 5458 5469 5484 5499 5519 5534 5547 5553 5562 5572 5578 5591 5599 5606 5612 5616 5620 5623 5625 5627 5629 5629 5627 5626 5625 5623 5619 5615 5612 5607 5605 5605 5603 5601 5600 5603
5545 5522 5502 5486 5472 5463 5460 5457 5455 5456 5455 5456 5465 5479 5496 5513 5528 5536 5547 5555 5563 5576 5586 5593 5601 5605 5610 5613 5616 5619 5620 5620 5618 5616 5614 5611 5610 5604 5601 5597 5593 5589 5590 5589 5585 5585 5586
5536 5514 5495 5481 5468 5461 5458 5455 5454 5454 5453 5455 5464 5476 5490 5509 5523 5531 5541 5546 5557 5570 5581 5588 5595 5599 5604 5606 5610 5612 5613 5614 5612 5608 5604 5597 5595 5591 5588 5585 5582 5582 5578 5586 5576 5576 5573
5528 5507 5488 5476 5466 5458 5455 5454 5453 5455 5455 5456 5464 5475 5490 5505 5519 5528 5536 5544 5555 5566 5575 5582 5588 5594 5597 5602 5605 5606 5607 5607 5604 5601 5598 5596 5591 5589 5585 5582 5580 5576 5572 5572 5569 5566 5563
5522 5500 5481 5469 5459 5453 5451 5452 5453 5455 5456 5458 5468 5482 5491 5503 5514 5523 5534 5542 5550 5560 5569 5576 5583 5588 5593 5597 5599 5601 5602 5599 5598 5596 5592 5589 5586 5586 5581 5578 5572 5567 5564 5563 5562 5561 5557
5516 5494 5475 5463 5454 5448 5448 5451 5454 5455 5455 5458 5468 5483 5492 5501 5512 5523 5533 5540 5547 5556 5564 5572 5578 5583 5589 5591 5594 5594 5593 5592 5593 5589 5587 5585 5579 5576 5572 5567 5563 5559 5556 5552 5548 5551 5550
5512 5490 5471 5458 5449 5445 5445 5449 5453 5454 5458 5464 5475 5486 5497 5506 5515 5523 5531 5538 5544 5552 5561 5568 5573 5580 5583 5587 5588 5586 5587 5588 5587 5585 5581 5579 5573 5566 5563 5560 5554 5550 5548 5544 5541 5540 5541
5509 5487 5469 5456 5448 5444 5444 5446 5454 5457 5461 5470 5481 5489 5496 5507 5513 5525 5530 5535 5543 5550 5558 5565 5571 5575 5580 5582 5582 5583 5583 5585 5584 5583 5577 5573 5569 5563 5556 5550 5546 5540 5540 5538 5534 5531 5537
5505 5485 5468 5456 5449 5447 5447 5448 5455 5459 5470 5479 5487 5494 5502 5507 5516 5525 5529 5535 5542 5550 5557 5563 5568 5573 5575 5577 5577 5577 5579 5582 5582 5579 5575 5569 5565 5558 5552 5545 5541 5537 5534 5533 5532 5533 5533
5503 5483 5468 5458 5453 5453 5454 5456 5461 5468 5476 5483 5490 5497 5501 5510 5518 5524 5530 5537 5543 5549 5556 5561 5566 5568 5571 5573 5572 5574 5577 5579 5580 5577 5572 5568 5562 5557 5552 5548 5545 5541 5537 5537 5537 5537 5537
5501 5482 5468 5461 5458 5460 5461 5463 5467 5473 5480 5486 5494 5500 5506 5513 5519 5525 5533 5538 5543 5549 5555 5558 5562 5565 5567 5568 5569 5572 5576 5578 5577 5574 5572 5567 5562 5558 5555 5550 5547 5544 5542 5542 5542 5543 5542
5500 5482 5470 5464 5462 5465 5465 5467 5474 5478 5485 5491 5498 5504 5509 5515 5521 5527 5533 5538 5544 5548 5553 5556 5559 5561 5564 5565 5567 5570 5573 5574 5574 5573 5572 5568 5565 5561 5558 5555 5552 5547 5544 5544 5545 5544 5545
5502 5485 5472 5468 5468 5468 5470 5475 5480 5486 5492 5496 5501 5507 5512 5518 5522 5526 5532 5537 5543 5547 5552 5554 5556 5558 5560 5562 5566 5569 5573 5574 5575 5573 5573 5571 5567 5565 5561 5559 5559 5555 5553 5551 5550 5554 5553
5503 5489 5475 5471 5472 5472 5476 5481 5486 5491 5495 5500 5504 5509 5513 5518 5524 5527 5533 5538 5542 5547 5550 5552 5553 5554 5557 5560 5564 5567 5572 5574 5574 5575 5573 5572 5571 5569 5567 5566 5563 5563 5562 5563 5563 5564 5566
5504 5490 5478 5473 5474 5478 5480 5484 5488 5493 5497 5502 5506 5511 5515 5519 5522 5528 5533 5537 5541 5544 5547 5550 5551 5553 5555 5558 5561 5564 5568 5573 5574 5574 5574 5574 5574 5573 5571 5570 5571 5570 5570 5571 5573 5576 5574
5502 5489 5477 5471 5472 5477 5482 5486 5490 5495 5499 5503 5507 5511 5515 5519 5524 5528 5531 5534 5539 5543 5546 5549 5550 5551 5553 5556 5558 5560 5564 5568 5571 5572 5572 5575 5574 5574 5573 5573 5575 5575 5575 5576 5577 5579 5581
5498 5485 5470 5464 5465 5470 5477 5483 5488 5492 5496 5501 5507 5511 5515 5519 5523 5526 5529 5533 5537 5541 5544 5546 5548 5548 5550 5552 5554 5555 5561 5564 5567 5570 5570 5573 5575 5576 5576 5575 5574 5575 5577 5578 5578 5579 5580